{"data":{"norad_id":57606,"intl_designator":"2023-119E","name":"STARLINK-30255","alt_names":[],"object_type":"PAYLOAD","status":"ACTIVE","operator":null,"country":"US","launch_date":"2023-08-11","launch_site_code":"AFETR","launch_vehicle":null,"mission":null,"orbit_class":"UNKNOWN","rcs_meters":null,"size_class":null,"mass_kg":null,"dimensions":null,"purposes":["comms"],"wikipedia_slug":null,"has_3d_model":false,"image_url":null,"decayed_at":null,"tle_current":{"epoch":"2026-05-25T00:46:30.491040Z","epoch_age_seconds":68441,"freshness":"FRESH","line1":"1 57606U 23119E   26145.03229735  .00000400  00000+0  24057-4 0  9994","line2":"2 57606  43.0037  10.2981 0001267 276.4320  83.6388 15.27576214154763","mean_motion":15.27576214,"eccentricity":0.0001267,"inclination_deg":43.0037,"raan_deg":10.2981,"arg_perigee_deg":276.432,"mean_anomaly_deg":83.6388,"bstar":2.4057e-5,"rev_number":15476,"period_min":94.266982347763,"perigee_km":482.19111899435,"apogee_km":483.9297464238,"semimajor_km":6861.1974327091,"source":"CELESTRAK","updated_at":"2026-05-25T13:38:18.354834Z"}}}